Location: Maccacari
(45.1333°N, 11.1333°E)
Time: 07:40:28
(UTC+00:00)

Cosmos 1092 Rocket - Pass Details

Date: 18 September 2020
Orbit: 955 x 995 km, 82.9° (Epoch: 29 October)

Event Time Altitude Azimuth Distance (km) Brightness Sun altitude
Rises 19:49:40 0° 349° (N) 3,645 7.6 -25.9°
Reaches altitude 10° 19:52:10 10° 348° (NNW) 2,697 6.8 -26.2°
Maximum altitude 19:58:18 72° 265° (W) 1,008 4.1 -27.1°
Enters shadow 20:00:16 45° 195° (SSW) 1,289 4.4 -27.4°
